Regional Weather Roundup
Issued by NWS

Home | Current Version | Previous Version | Graphics & Text | Print | Product List | Glossary On
Versions: 1 2 3 4 5 6 7 8 9 10 11 12 13 14 15 16 17 18 19 20 21 22 23 24 25 26 27 28 29 30 31 32 33 34 35 36 37 38 39 40 41 42 43 44 45 46 47 48 49 50
000
ASUS43 KDTX 280610
RWRMI
MICHIGAN HOURLY REGIONAL WEATHER ROUNDUP
NATIONAL WEATHER SERVICE DETROIT/PONTIAC MI
200 AM EDT WED SEP 28 2016

NOTE: "FAIR" INDICATES FEW OR NO CLOUDS BELOW 12,000 FEET WITH NO
SIGNIFICANT WEATHER AND/OR OBSTRUCTION TO VISIBILITY.

MIZ047>049-052>055-059>063-066>070-074>076-081>083-280700-
SOUTHEAST LOWER MICHIGAN

CITY           SKY/WX    TMP DP  RH WIND       PRES   REMARKS
ADRIAN         PTCLDY    48  44  86 NE3       29.83R
6HR MIN TEMP:  47; 6HR MAX TEMP:  58;

ALMA           CLOUDY    53  52  96 SW6       29.80S
ANN ARBOR      MOCLDY    46  45  96 CALM      29.82S
BAD AXE        MOCLDY    51  47  87 SE5       29.84R
6HR MIN TEMP:  50; 6HR MAX TEMP:  56;

CARO           CLOUDY    52  48  88 CALM      29.82R
DETROIT CITY   CLOUDY    57  47  69 N6        29.83R
6HR MIN TEMP:  57; 6HR MAX TEMP:  66;

DETROIT        CLOUDY    56  46  69 NE5       29.83S
6HR MIN TEMP:  55; 6HR MAX TEMP:  64;

FLINT          CLOUDY    52  48  86 S5        29.83S
6HR MIN TEMP:  52; 6HR MAX TEMP:  58; 6HR PCP: TRACE;

GROSSE ILE     MOCLDY    53  44  71 CALM      29.81S
6HR MIN TEMP:  53; 6HR MAX TEMP:  64;

HILLSDALE      MOCLDY    48  43  81 E5        29.81S
HOWELL         CLOUDY    52  48  87 CALM      29.82S
6HR MIN TEMP:  51; 6HR MAX TEMP:  57;


CITY           SKY/WX    TMP DP  RH WIND       PRES   REMARKS
JACKSON        MOCLDY    53  48  83 NE3       29.82S
6HR MIN TEMP:  51; 6HR MAX TEMP:  61;

LAMBERTVILLE   CLOUDY    48  45  88 CALM      29.82S
6HR MIN TEMP:  47; 6HR MAX TEMP:  57;

LANSING        CLOUDY    53  46  77 SE6       29.81F
6HR MIN TEMP:  53; 6HR MAX TEMP:  58; 6HR PCP: TRACE;

LAPEER         MOCLDY    52  48  86 S3        29.84S
6HR MIN TEMP:  52; 6HR MAX TEMP:  57;

MASON          CLOUDY    51  47  86 S6        29.82S
MONROE         MOCLDY    47  43  84 CALM      29.81S
6HR MIN TEMP:  46; 6HR MAX TEMP:  56;

MT. CLEMENS    CLOUDY    55  47  75 N3        29.82R
6HR MIN TEMP:  54; 6HR MAX TEMP:  64;

PONTIAC        MOCLDY    53  48  83 CALM      29.83S
6HR MIN TEMP:  53; 6HR MAX TEMP:  60; 6HR PCP: TRACE;

PORT HURON     CLOUDY    50  50 100 CALM      29.85R
TRI CITIES     CLOUDY    53  51  93 S7        29.81S
6HR MIN TEMP:  53; 6HR MAX TEMP:  57; 6HR PCP: TRACE;

MIDLAND        CLOUDY    53  50  90 S3        29.79S
6HR MIN TEMP:  52; 6HR MAX TEMP:  55;

TROY           CLOUDY    58  45  61 CALM      29.85S
SAGINAW HB     CLOUDY    52  50  93 S6        29.81R
$$
MIZ043>046-050>051-056>058-064>065-071>073-077>080-280700-
SOUTHWEST LOWER MICHIGAN

CITY           SKY/WX    TMP DP  RH WIND       PRES   REMARKS
BATTLE CREEK   CLOUDY    54  48  80 E5        29.81R
6HR MIN TEMP:  54; 6HR MAX TEMP:  60;

BENTON HARBOR  CLOUDY    54  48  80 NE3       29.79S
6HR MIN TEMP:  51; 6HR MAX TEMP:  62;

BIG RAPIDS     CLOUDY    51  51  97 CALM      29.78R
6HR MIN TEMP:  51; 6HR MAX TEMP:  53; 6HR PCP:  0.02;

COLDWATER      CLOUDY    52  46  80 E3        29.81S
6HR MIN TEMP:  49; 6HR MAX TEMP:  61;

FREMONT        CLOUDY    50  50  99 CALM      29.76F
HOLLAND        CLOUDY    53  51  93 S3        29.80R
6HR MIN TEMP:  53; 6HR MAX TEMP:  57; 6HR PCP:  0.01;

GRAND RAPIDS   MOCLDY    52  49  89 CALM      29.80R
6HR MIN TEMP:  51; 6HR MAX TEMP:  56; 6HR PCP: TRACE;

IONIA          FAIR      52  46  82 S5        29.80R
KALAMAZOO      CLOUDY    53  47  79 CALM      29.80S
6HR MIN TEMP:  52; 6HR MAX TEMP:  60;

LUDINGTON      HVY RAIN  50  50 100 SE3       29.75R
6HR MIN TEMP:  50; 6HR MAX TEMP:  52; 6HR PCP:  0.32;

MARSHALL       MOCLDY    50  48  94 CALM      29.81S
6HR MIN TEMP:  50; 6HR MAX TEMP:  60;

MOUNT PLEASANT CLOUDY    53  51  92 CALM      29.79R
6HR MIN TEMP:  52; 6HR MAX TEMP:  55;

MUSKEGON       CLOUDY    53  51  93 S3        29.78R
6HR MIN TEMP:  53; 6HR MAX TEMP:  59; 6HR PCP:  0.01;

SOUTH HAVEN    CLOUDY    54  52  93 CALM      29.79S
$$
MIZ016>042-280700-
NORTHERN LOWER MICHIGAN

CITY           SKY/WX    TMP DP  RH WIND       PRES   REMARKS
ALPENA         FOG       50  48  93 CALM      29.82R VSB 3/4
6HR MIN TEMP:  48; 6HR MAX TEMP:  55; 6HR PCP: TRACE;

BEAVER ISLAND  CLOUDY    48  48 100 CALM      29.75R FOG
6HR MIN TEMP:  47; 6HR MAX TEMP:  52;

BELLAIRE       CLOUDY    50  48  93 CALM      29.77R
6HR MIN TEMP:  50; 6HR MAX TEMP:  52;

CADILLAC       DRIZZLE   49  47  95 SE5       29.77R
CHARLEVOIX     PTCLDY    50  49  99 SE7       29.79R
FRANKFORT      DRIZZLE   51  49  93 SE3       29.74R
GAYLORD        CLOUDY    48  45  89 S5        29.79R
6HR MIN TEMP:  48; 6HR MAX TEMP:  50; 6HR PCP:  0.03;

GRAYLING       CLOUDY    47  47  99 CALM      29.79R
6HR MIN TEMP:  47; 6HR MAX TEMP:  51;

HARBOR SPRINGS CLOUDY    48  47  97 E5        29.78R
HOUGHTON LAKE  CLOUDY    50  48  93 S6        29.80R
6HR MIN TEMP:  49; 6HR MAX TEMP:  52; 6HR PCP:  0.02;

MANISTEE       LGT RAIN  51  50  96 VRB3      29.75R
OSCODA         CLOUDY    52  48  87 SW3       29.81R
6HR MIN TEMP:  51; 6HR MAX TEMP:  52;

PELLSTON       PTCLDY    48  46  93 SE5       29.78R
6HR MIN TEMP:  47; 6HR MAX TEMP:  52; 6HR PCP:  0.03;

ROGERS CITY    CLOUDY    51  49  93 CALM      29.82R
TRAVERSE CITY  PTCLDY    51  48  89 CALM      29.75R
6HR MIN TEMP:  51; 6HR MAX TEMP:  53; 6HR PCP:  0.06;

$$
MIZ007>008-015-280700-
EASTERN UPPER MICHIGAN

CITY           SKY/WX    TMP DP  RH WIND       PRES   REMARKS
KINROSS        CLOUDY    52  50  93 E7        29.81R
6HR MIN TEMP:  49; 6HR MAX TEMP:  51; 6HR PCP:  0.05;

MACKINAC ISLAN PTCLDY    51  51 100 SE5       29.79R
NEWBERRY       FOG       47  46  97 E5        29.77R VSB 3/4
6HR MIN TEMP:  47; 6HR MAX TEMP:  50; 6HR PCP:  0.08;

S. S. MARIE    MOCLDY    52  51  97 CALM      29.80R
6HR MIN TEMP:  51; 6HR MAX TEMP:  54; 6HR PCP: TRACE;

MUNISING         N/A     51  50  96 SE7       29.75R
6HR MIN TEMP:  51; 6HR MAX TEMP:  53; 6HR PCP:  0.02;

$$
MIZ004>006-011>014-085-280700-
CENTRAL UPPER MICHIGAN

CITY           SKY/WX    TMP DP  RH WIND       PRES   REMARKS
MANISTIQUE     CLOUDY    50  48  93 E3        29.75R
6HR MIN TEMP:  50; 6HR MAX TEMP:  51;

ESCANABA       CLEAR     47  46  97 NW3       29.74R
6HR MIN TEMP:  46; 6HR MAX TEMP:  50;

MENOMINEE      CLOUDY    50  49  96 CALM      29.75R
6HR MIN TEMP:  50; 6HR MAX TEMP:  52;

SAWYER-GWINN   CLEAR     44  43  97 CALM      29.74R
6HR MIN TEMP:  44; 6HR MAX TEMP:  50;

$$
MIZ001>003-009>011-084-280700-
WESTERN UPPER MICHIGAN

CITY           SKY/WX    TMP DP  RH WIND       PRES   REMARKS
IRON MOUNTAIN  CLOUDY    50  46  86 NW5       29.74R
6HR MIN TEMP:  49; 6HR MAX TEMP:  50; 6HR PCP: TRACE;

HOUGHTON       MOCLDY    53  50  89 NE12      29.78R
6HR MIN TEMP:  52; 6HR MAX TEMP:  54; 6HR PCP:  0.08;

COPPER HARBOR    N/A     57  54  89 E8G18     29.79R
6HR MIN TEMP:  57; 6HR MAX TEMP:  58;

IRONWOOD       LGT RAIN  52  51  97 N10       29.81R FOG
6HR MIN TEMP:  49; 6HR MAX TEMP:  52; 6HR PCP:  0.25;

$$

ABBREVIATIONS USED IN REMARKS
   TC - TEMPERATURE IN CELSIUS
  WCI - WIND CHILL INDEX
   HX - HEAT INDEX
  VSB - VISIBILITY




USA.gov is the U.S. government's official web portal to all federal, state and local government web resources and services.